This is the latest recevied weather packets stored in our database for station/object YC0ACE-13. If no packets are shown the sender has not sent any weather packets the latest 10 day(s).
| Time | Temp. | Humidity | Pressure | Rain* | Wind** | Luminosity | Snow |
|---|---|---|---|---|---|---|---|
| 1777430725 | 32.22° C | 64% | 1015.6 hPa | 0 mm | - | 647 W/m² | - |
| 1777430425 | 32.22° C | 64% | 1015.9 hPa | 0 mm | - | 673 W/m² | - |
| 1777430125 | 31.67° C | 67% | 1015.6 hPa | 0 mm | - | 460 W/m² | - |
| 1777429824 | 32.22° C | 66% | 1015.6 hPa | 0 mm | - | 678 W/m² | - |
| 1777429526 | 32.22° C | 65% | 1015.9 hPa | 0 mm | - | 343 W/m² | - |
| 1777429224 | 31.67° C | 68% | 1015.9 hPa | 0 mm | - | 645 W/m² | - |
| 1777428925 | 31.11° C | 69% | 1015.6 hPa | 0 mm | - | 577 W/m² | - |
| 1777428625 | 31.11° C | 69% | 1015.6 hPa | 0 mm | - | 346 W/m² | - |
| 1777428325 | 31.11° C | 69% | 1015.6 hPa | 0 mm | - | 450 W/m² | - |
| 1777428025 | 30.56° C | 71% | 1015.6 hPa | 0 mm | - | 460 W/m² | - |
| 1777427724 | 30.56° C | 71% | 1015.6 hPa | 0 mm | - | 454 W/m² | - |
| 1777427425 | 30.56° C | 72% | 1015.6 hPa | 0 mm | - | 440 W/m² | - |
| 1777427124 | 30.56° C | 71% | 1015.6 hPa | 0 mm | - | 423 W/m² | - |
| 1777426825 | 30.56° C | 73% | 1015.6 hPa | 0 mm | - | 336 W/m² | - |
| 1777426524 | 30.56° C | 72% | 1015.6 hPa | 0 mm | - | 369 W/m² | - |
| 1777426224 | 30.56° C | 72% | 1015.2 hPa | 0 mm | - | 349 W/m² | - |
| 1777425925 | 30.56° C | 72% | 1015.2 hPa | 0 mm | - | 326 W/m² | - |
| 1777425625 | 30.56° C | 72% | 1015.6 hPa | 0 mm | - | 344 W/m² | - |
| 1777425325 | 30° C | 74% | 1015.2 hPa | 0 mm | - | 316 W/m² | - |
| 1777425024 | 30° C | 73% | 1015.2 hPa | 0 mm | - | 313 W/m² | - |
| 1777424726 | 29.44° C | 76% | 1015.2 hPa | 0 mm | - | 289 W/m² | - |
| 1777424425 | 28.89° C | 78% | 1015.2 hPa | 0 mm | - | 283 W/m² | - |
| 1777424125 | 29.44° C | 77% | 1015.2 hPa | 0 mm | - | 206 W/m² | - |
| 1777423825 | 28.89° C | 79% | 1015.2 hPa | 0 mm | - | 243 W/m² | - |
| 1777423525 | 28.89° C | 80% | 1015.2 hPa | 0 mm | - | 187 W/m² | - |
* Rain latest hour (hover to see other rain measurements)
** Current wind speed in m/s (hover to see current wind gust speed)